Regional Weather Roundup
Issued by NWS

Home | Current Version | Previous Version | Graphics & Text | Print | Product List | Glossary On
Versions: 1 2 3 4 5 6 7 8 9 10 11 12 13 14 15 16 17 18 19 20 21 22 23 24 25 26 27 28 29 30 31 32 33 34 35 36 37 38 39 40 41 42 43 44 45 46 47 48 49 50
000
ASUS43 KMKX 270210
RWRWI

WISCONSIN REGIONAL WEATHER ROUNDUP
NATIONAL WEATHER SERVICE MILWAUKEE/SULLIVAN WI
900 PM CDT THU APR 26 2018

NOTE: "FAIR" INDICATES FEW OR NO CLOUDS BELOW 12,000 FEET WITH NO
SIGNIFICANT WEATHER AND/OR OBSTRUCTIONS TO VISIBILITY.

WIZ001-002-006>008-014>016-023>028-270300-
NORTHWEST WISCONSIN

CITY           SKY/WX    TMP DP  RH WIND       PRES   REMARKS
SUPERIOR ARPT  FAIR      38  31  76 N5        29.90R WCI  35
ASHLAND        FAIR      38  32  79 N3        29.90S
HAYWARD        FAIR      41  27  57 CALM      29.88S
SIREN          FAIR      49  23  34 CALM      29.90S
CUMBERLAND     FAIR      48  27  43 N5        29.89R
RICE LAKE      FAIR      50  31  48 N6        29.90R
CHETEK         FAIR      45  33  62 CALM      29.89R
LADYSMITH      FAIR      46  34  65 NE7       29.90R
EAU CLAIRE     FAIR      52  35  52 N7        29.86R
MENOMONIE      FAIR      54  29  39 NW10      29.87R
NEW RICHMOND   FAIR      50  28  42 NW9       29.91R
OSCEOLA        FAIR      52  28  40 NW8       29.94R
$$

WIZ003>005-009-010-017-018-270300-
NORTH CENTRAL WISCONSIN

CITY           SKY/WX    TMP DP  RH WIND       PRES   REMARKS
MANITOWISH WTR FAIR      33  33  99 CALM      29.88R
ARBOR VITAE    FAIR      37  33  87 CALM      29.88R
WOODRUFF       FAIR      37  33  87 CALM      29.88R
RHINELANDER    FAIR      39  34  82 N3        29.88R
EAGLE RIVER    FAIR      37  31  78 N3        29.87S
LAND O LAKES   FAIR      32  31  94 CALM      29.89R
PHILLIPS       FAIR      39  30  70 CALM      29.88R
TOMAHAWK       FAIR      39  32  77 N5        29.89R
MEDFORD        FAIR      41  34  74 N8        29.87R
MERRILL        MOCLDY    43  34  70 N13       29.88R
$$

WIZ029-030-035-036-043>047-270300-
CENTRAL WISCONSIN

CITY           SKY/WX    TMP DP  RH WIND       PRES   REMARKS
WAUSAU         MOCLDY    48  34  58 N14G23    29.84R
MOSINEE        MOCLDY    48  34  57 N17       29.86R
MARSHFIELD     MOCLDY    48  35  60 NE14G20   29.84R
STEVENS POINT  CLOUDY    49  34  54 N13G20    29.84R
WAUPACA        CLOUDY    61  32  33 NW12G18   29.78R
WAUTOMA        MOCLDY    55  33  43 W5        29.77
WISC RAPIDS    CLOUDY    53  34  48 N21G32    29.84R
CAMP DOUGLAS   CLOUDY    61  37  41 N23G29    29.80R
$$

WIZ011>013-019>022-031-037>040-048>050-270300-
NORTHEAST WISCONSIN

CITY           SKY/WX    TMP DP  RH WIND       PRES   REMARKS
ANTIGO         CLOUDY    43  34  72 N17G23    29.86R
SHAWANO        CLOUDY    57  34  41 N15       29.79R
OCONTO         CLOUDY    53  33  46 NE9G25    29.80R
STURGEON BAY   CLOUDY    45  33  63 N24       29.80R
GREEN BAY      FAIR      57  42  57 CALM      29.75S
MANITOWOC      FAIR      44  35  70 E3        29.77F
APPLETON       MOCLDY    57  25  28 CALM      29.74
CLINTONVILLE   CLOUDY    59  31  35 N15       29.78R
OSHKOSH        MOCLDY    56  35  45 S7        29.75S
$$

WIZ032>034-041-042-053>061-270300-
SOUTHWEST WISCONSIN

CITY           SKY/WX    TMP DP  RH WIND       PRES   REMARKS
LA CROSSE      CLOUDY    59  38  45 NW10      29.82R
SPARTA         CLOUDY    60  36  40 N12G18    29.83R
VIROQUA        FAIR      56  38  51 NW13      29.82R
BOSCOBEL       FAIR      62  42  47 W6        29.80R
PRAIRIE DU CHI FAIR      59  38  46 W10       29.81S
PLATTEVILLE    FAIR      59  40  48 W10       29.81R
$$

WIZ056-057-062-063-064-067-068-270300-
SOUTH CENTRAL WISCONSIN

CITY           SKY/WX    TMP DP  RH WIND       PRES   REMARKS
REEDSBURG      CLOUDY    60  36  41 W7        29.78R
BARABOO/DELLS  MOCLDY    60  28  29 CALM      29.78R
LONE ROCK      FAIR      61  37  41 W8        29.78S
MINERAL POINT  FAIR      59  32  36 W6        29.80S
MADISON        MOCLDY    56  34  43 CALM      29.77S
MIDDLETON      FAIR      51  36  55 W6        29.79R
WATERTOWN      FAIR      56  33  41 CALM      29.78S
MONROE         FAIR      59  28  31 SW7       29.79S
JANESVILLE     FAIR      59  28  31 S5        29.79F
$$

WIZ051-052-058>065-066-070>072-270300-
SOUTHEAST WISCONSIN

CITY           SKY/WX    TMP DP  RH WIND       PRES   REMARKS
MILWAUKEE      MOCLDY    52  28  39 S8        29.80F
WAUKESHA       CLEAR     57  27  30 S3        29.80F
MILWAUKEE/TIMM PTCLDY    55  27  33 S7        29.80S
RACINE         FAIR      51  23  33 S14       29.82F
BURLINGTON     FAIR      53  31  43 S3        29.80S
KENOSHA        FAIR      49  26  41 S8        29.81F
FOND DU LAC    FAIR      56  32  40 S5        29.76S
SHEBOYGAN      FAIR      47  35  63 S6        29.77F
WEST BEND      FAIR      54  32  43 CALM      29.78S
JUNEAU         FAIR      56  33  40 S5        29.78S
$$

LSZ147-162-270300-
LAKE SUPERIOR

STATION/POSITION TIME  TEMP    WIND        PRES    WAVE
                       AIR SEA DIR/SP/G            HT/PER
                 (UTC) (F)     (DEG/KT/KT) (MB)    (FT/S)
DEVILS ISLAND    0200   45     170/  7/  8 1012.9R
SAXON HARBOR     0130   37     180/  2/  2 1011.9S
$$

LMZ867-665-643>646-270300-
LAKE MICHIGAN

STATION/POSITION TIME  TEMP    WIND        PRES    WAVE
                       AIR SEA DIR/SP/G            HT/PER
                 (UTC) (F)     (DEG/KT/KT) (MB)    (FT/S)
NORTHPORT PIER   0140   41                 1010.2R
KEWAUNEE LAKESHO 0148   42     180/  8/ 10 1007.5F
SHEBOYGAN LAKESH 0200   45     190/ 13/ 14 1008.6F
PORT WASHINGTON  0140   45     190/  7/ 10 1009.8S
MILWAUKEE LAKESH 0150   47     160/  9/  9   N/A
KENOSHA   LAKESH 0200   46                 1009.5
$$

TC  - TEMPERATURE IN CELSIUS
VSB - VISIBILITY IN STATUTE MILES
WCI - WIND CHILL INDEX
HX  - HEAT INDEX




USA.gov is the U.S. government's official web portal to all federal, state and local government web resources and services.